[[{"header":{"parameterUnit":"m.s-1","parameterCategory":1,"la1":30.2991,"la2":30.254,"lo1":-89.0895,"lo2":-89.0444,"dx":0.0017,"dy":0.0017,"nx":28,"ny":28,"refTime":"2022-11-19T09:00:00:Z","depth":0,"parameterNumber":2,"parameterNumberName":"U-component_of_WINDS"},"data":[0,0,0,0,0,0,0,0,0,0,0,0,0,0,0,0,0,0,0,0,0,0,0,0,0,0,0,0,0,0,0,0,0,0,0,0,0,0,0,0,0,0,0,0,0,0,0,0,0,0,0,0,0,0,0,0,0,0,-5.0037,-5.0038,0,-5.0102,-5.0103,-5.0104,-4.9969,-4.9964,-4.996,-4.9956,-5.0025,-5.0031,-5.0037,0,0,0,0,0,0,0,0,0,0,0,0,0,-4.9797,-4.9802,-5.0037,-5.0038,-5.0039,-5.0102,-5.0103,-5.0104,-4.9969,-4.9964,-4.9959,-4.9954,-5.0023,-5.003,-5.0037,0,0,0,0,0,0,0,0,0,0,0,0,0,-4.9886,-4.9804,-5.0037,-4.9979,-4.9974,-5.0102,-5.0103,-5.0104,-4.9971,-4.9964,-4.9957,-4.9951,-5.0021,-5.003,-5.0038,-5.0226,0,0,-5.0066,-5.007,0,0,0,0,0,0,0,0,-4.9881,-4.9895,-4.9987,-4.9983,-4.9978,-5.002,-5.0044,-5.0145,-4.9972,-4.9972,-4.9956,-4.9948,-5.0029,-5.0037,-5.0064,-5.0229,-5.0232,-5.0067,-5.0072,-5.0076,-5.0078,0,0,0,0,0,0,0,-4.9875,-4.9891,-5.0063,-4.9988,-4.9983,-4.995,-4.9956,-5.0063,-5.0037,-4.9972,-4.9962,-4.9971,-5.0026,-5.0056,-5.0065,-5.0233,-5.0066,-5.0074,-5.008,-5.0083,-5.0557,-5.0564,0,0,0,0,0,0,-4.9876,-4.9887,-5.0061,-5.0065,-4.9912,-4.996,-4.9966,-5.0014,-5.0035,-5.0032,-4.9977,-4.9965,-5.0044,-5.0054,-5.0067,-5.0289,-5.0076,-5.0084,-5.0089,-5.055,-5.0559,-5.0567,0,0,0,0,0,0,-4.9871,-4.9893,-5.0058,-4.9973,-4.9992,-4.9971,-5.0026,-5.0018,-5.0048,-5.0039,-5.0034,-5.0012,-5.0039,-5.0054,-5.0188,-5.029,-5.0088,-5.0096,-5.0542,-5.0553,-5.0563,-5.0736,0,0,0,0,0,0,-4.9865,-4.9892,-4.9963,-4.9976,-4.9997,-5.0178,-5.0032,-5.0025,-5.0064,-5.0049,-5.0071,-5.0069,-5.0035,-5.0175,-5.0197,-5.0298,-5.0103,-5.0533,-5.0547,-5.0559,-5.0721,-5.0751,-5.0777,0,0,0,0,0,-4.9857,-5.0009,-4.9967,-4.9989,-5.0085,-5.0184,-5.0196,-5.0153,-5.0073,-5.0144,-5.0138,-5.0068,-5.0274,-5.019,-5.0213,-5.0319,-5.0526,-5.0543,-5.0558,-5.0708,-5.0745,-5.0776,0,0,0,0,0,0,-5.0009,-5.001,-4.9963,-5.0124,-5.0155,-5.0161,-5.025,-5.0194,-5.0249,-5.0233,-5.0177,-5.0184,-5.0329,-5.0336,-5.0242,-5.0502,-5.0387,-5.0408,-5.0493,-5.0528,-5.0555,-5.0552,-5.0111,0,0,0,0,0,-5.0061,-5.0141,-5.0137,-5.0279,-5.0297,-5.0272,-5.0313,-5.0277,-5.0308,-5.032,-5.0324,-5.0357,-5.0429,-5.0478,-5.0544,-5.072,-5.0724,-5.0805,-5.0833,-5.0856,-5.0876,-5.0972,-5.1008,-5.062,-5.062,-5.062,0,0,-5.017,-5.018,-5.0234,-5.031,-5.033,-5.0416,-5.0284,-5.0379,-5.0442,-5.0335,-5.0462,-5.0466,-5.0499,-5.0655,-5.0724,-5.0666,-5.0984,-5.0876,-5.0895,-5.0903,-5.0992,-5.1029,-5.1062,-5.0631,-5.0629,-5.0628,0,0,-5.0413,-5.0427,-5.0548,-5.0571,-5.0602,-5.0584,-5.0613,-5.0628,-5.0627,-5.0752,-5.0674,-5.0748,-5.0874,-5.0901,-5.0931,-5.1184,-5.1122,-5.1206,-5.1355,-5.1448,-5.1479,-5.1506,-5.1598,-5.1632,-5.1226,-5.1226,-5.1227,0,-5.0544,-5.0669,-5.0618,-5.0719,-5.0756,-5.0661,-5.0784,-5.0808,-5.0861,-5.0888,-5.0822,-5.0978,-5.0993,-5.1155,-5.1217,-5.1243,-5.1276,-5.1205,-5.1478,-5.1505,-5.1529,-5.1617,-5.1652,-5.1237,-5.1236,-5.1234,-5.1233,0,-5.0831,-5.0918,-5.1012,-5.1065,-5.1111,-5.1223,-5.1189,-5.1243,-5.1202,-5.1191,-5.1322,-5.1336,-5.1404,-5.1439,-5.1401,-5.1597,-5.156,-5.1487,-5.137,-5.1577,-5.1659,-5.1692,-5.1251,-5.1248,-5.1245,-5.1242,0,0,-5.1173,-5.1195,-5.1231,-5.1254,-5.1281,-5.1349,-5.1456,-5.1521,-5.157,-5.1608,-5.1698,-5.1806,-5.1738,-5.1773,-5.1736,-5.1818,-5.202,-5.1735,-5.1735,-5.179,-5.224,-5.2297,-5.2337,-5.1978,-5.1984,-5.1989,-5.2238,0,-5.1416,-5.16,-5.1557,-5.174,-5.1822,-5.1733,-5.1826,-5.1854,-5.1846,-5.1914,-5.1905,-5.1984,-5.1887,-5.1908,-5.1985,-5.198,-5.211,-5.196,-5.2064,-5.2068,-5.2061,-5.2379,-5.2439,-5.2674,-5.2269,-5.2274,-5.2278,0,-5.1724,-5.1774,-5.1966,-5.198,-5.2013,-5.2098,-5.2155,-5.2221,-5.225,-5.2239,-5.2278,-5.2225,-5.2332,-5.2212,-5.236,-5.226,-5.2298,-5.2302,-5.231,-5.2321,-5.2188,-5.2401,-5.2747,-5.2784,-5.2327,-5.2323,-5.232,0,-5.1958,-5.2073,-5.2203,-5.2225,-5.2245,-5.2307,-5.2319,-5.2341,-5.2384,-5.2434,-5.2461,-5.2523,-5.2558,-5.2607,-5.2573,-5.2488,-5.2728,-5.2604,-5.2724,-5.2725,-5.2781,-5.2779,-5.3142,-5.2801,-5.2801,-5.28,-5.2799,0,-5.2236,-5.2357,-5.2309,-5.2389,-5.2523,-5.2471,-5.2605,-5.2606,-5.2627,-5.2706,-5.2632,-5.2708,-5.2657,-5.273,-5.2704,-5.2832,-5.2847,-5.2842,-5.2835,-5.2851,-5.2852,-5.2878,-5.2863,-5.2809,-5.2807,-5.2806,-5.2804,0,-5.2522,-5.2494,-5.263,-5.2637,-5.2642,-5.274,-5.2747,-5.2822,-5.2807,-5.2909,-5.293,-5.2909,-5.299,-5.296,-5.3047,-5.3029,-5.3194,-5.3163,-5.3184,-5.3178,-5.33,-5.329,-5.3695,-5.3746,-5.337,-5.3374,-5.3377,0,-5.2702,-5.2793,-5.281,-5.2858,-5.2874,-5.2952,-5.2995,-5.2947,-5.2995,-5.3036,-5.3107,-5.3181,-5.3239,-5.3373,-5.3366,-5.3432,-5.3404,-5.3542,-5.3414,-5.3428,-5.341,-5.3407,-5.3417,-5.3569,-5.3573,-5.3576,-5.3579,0,-5.3026,-5.3008,-5.3072,-5.3133,-5.3186,-5.3231,-5.3269,-5.3313,-5.3267,-5.3325,-5.3407,-5.3452,-5.354,-5.3616,-5.3675,-5.3687,-5.3628,-5.3619,-5.365,-5.367,-5.368,-5.3679,-5.3257,-5.3611,-5.3608,-5.3605,-5.3604,-5.3602,-5.3267,-5.3344,-5.3369,-5.3443,-5.3467,-5.3505,-5.3576,-5.357,-5.3638,-5.3706,-5.3673,-5.3769,-5.3796,-5.3869,-5.389,-5.3965,-5.3912,-5.3957,-5.3969,-5.3982,-5.3999,-5.3665,-5.3975,-5.3974,-5.3973,-5.3973,-5.3972,0,-5.3589,-5.36,-5.3669,-5.3726,-5.3785,-5.372,-5.3759,-5.3814,-5.3899,-5.3929,-5.3986,-5.4082,-5.4155,-5.4153,-5.4221,-5.4281,-5.4256,-5.4301,-5.4298,-5.4302,-5.4041,-5.4008,-5.4321,-5.4321,-5.4321,-5.432,-5.432,-5.432,-5.3765,-5.3893,-5.3878,-5.4017,-5.4027,-5.412,-5.4148,-5.4183,-5.4207,-5.4316,-5.4377,-5.4374,-5.4392,-5.446,-5.4525,-5.4522,-5.4553,-5.4609,-5.4597,-5.4355,-5.432,-5.4287,-5.4256,-5.4615,-5.4616,-5.4852,-5.4854,-5.4856]},{"header":{"parameterUnit":"m.s-1","parameterCategory":1,"la1":30.2991,"la2":30.254,"lo1":-89.0895,"lo2":-89.0444,"dx":0.0017,"dy":0.0017,"nx":28,"ny":28,"refTime":"2022-11-19T09:00:00:Z","depth":0,"parameterNumber":3,"parameterNumberName":"V-component_of_WINDS"},"data":[0,0,0,0,0,0,0,0,0,0,0,0,0,0,0,0,0,0,0,0,0,0,0,0,0,0,0,0,0,0,0,0,0,0,0,0,0,0,0,0,0,0,0,0,0,0,0,0,0,0,0,0,0,0,0,0,0,0,-3.7621,-3.7621,0,-3.7629,-3.7629,-3.7629,-3.7589,-3.7587,-3.7586,-3.7585,-3.7593,-3.7594,-3.7595,0,0,0,0,0,0,0,0,0,0,0,0,0,-3.7569,-3.7571,-3.7621,-3.7621,-3.7621,-3.7629,-3.7629,-3.7629,-3.7589,-3.7587,-3.7586,-3.7585,-3.7592,-3.7594,-3.7595,0,0,0,0,0,0,0,0,0,0,0,0,0,-3.7586,-3.7571,-3.7621,-3.7602,-3.76,-3.7629,-3.7629,-3.7629,-3.7589,-3.7587,-3.7586,-3.7584,-3.7592,-3.7594,-3.7596,-3.7642,0,0,-3.7601,-3.7602,0,0,0,0,0,0,0,0,-3.7585,-3.7588,-3.7605,-3.7603,-3.7602,-3.7606,-3.7613,-3.7634,-3.7589,-3.7593,-3.7585,-3.7583,-3.7598,-3.76,-3.7605,-3.7643,-3.7643,-3.7602,-3.7603,-3.7604,-3.7604,0,0,0,0,0,0,0,-3.7584,-3.7587,-3.7624,-3.7605,-3.7603,-3.7593,-3.7593,-3.7617,-3.7606,-3.7593,-3.759,-3.7591,-3.7597,-3.7603,-3.7605,-3.7643,-3.7602,-3.7603,-3.7604,-3.7605,-3.7717,-3.7719,0,0,0,0,0,0,-3.7586,-3.7587,-3.7624,-3.7624,-3.7589,-3.7595,-3.7595,-3.7606,-3.7605,-3.7603,-3.7593,-3.759,-3.7601,-3.7603,-3.7605,-3.7658,-3.7604,-3.7605,-3.7607,-3.7716,-3.7718,-3.772,0,0,0,0,0,0,-3.7585,-3.7589,-3.7623,-3.7605,-3.7608,-3.7598,-3.761,-3.7607,-3.7613,-3.7605,-3.7603,-3.7601,-3.76,-3.7602,-3.7633,-3.7658,-3.7606,-3.7608,-3.7714,-3.7716,-3.7719,-3.7766,0,0,0,0,0,0,-3.7583,-3.7589,-3.7607,-3.7605,-3.7609,-3.7652,-3.7612,-3.7609,-3.7617,-3.7612,-3.7612,-3.7611,-3.7598,-3.763,-3.7635,-3.766,-3.761,-3.7711,-3.7715,-3.7718,-3.7762,-3.777,-3.7777,0,0,0,0,0,-3.7582,-3.7621,-3.7609,-3.7613,-3.7632,-3.7654,-3.7656,-3.7641,-3.7619,-3.7637,-3.7631,-3.7611,-3.7655,-3.7634,-3.7639,-3.7664,-3.771,-3.7714,-3.7718,-3.7759,-3.7768,-3.7776,0,0,0,0,0,0,-3.7626,-3.762,-3.7607,-3.7646,-3.7651,-3.7647,-3.7669,-3.7652,-3.7662,-3.7658,-3.7639,-3.7639,-3.7672,-3.7672,-3.7648,-3.7708,-3.7678,-3.7683,-3.7708,-3.7717,-3.7724,-3.7723,-3.7611,0,0,0,0,0,-3.7641,-3.7659,-3.7653,-3.7688,-3.7691,-3.768,-3.7688,-3.7676,-3.768,-3.7682,-3.7679,-3.7683,-3.7697,-3.7707,-3.772,-3.7762,-3.776,-3.7782,-3.7789,-3.7795,-3.78,-3.782,-3.7829,-3.7733,-3.7733,-3.7733,0,0,-3.7671,-3.767,-3.7683,-3.7697,-3.7699,-3.7718,-3.7681,-3.7703,-3.7716,-3.7685,-3.7713,-3.7711,-3.7714,-3.775,-3.7766,-3.775,-3.7826,-3.78,-3.7805,-3.7806,-3.7825,-3.7834,-3.7842,-3.7736,-3.7736,-3.7735,0,0,-3.7735,-3.7737,-3.7766,-3.7768,-3.7771,-3.7763,-3.777,-3.7768,-3.7765,-3.7793,-3.7769,-3.7785,-3.7811,-3.7813,-3.7818,-3.7881,-3.7862,-3.7886,-3.7924,-3.7944,-3.7951,-3.7958,-3.7979,-3.7987,-3.7891,-3.7891,-3.7891,0,-3.7772,-3.7799,-3.7783,-3.7805,-3.7811,-3.7784,-3.7812,-3.7815,-3.7822,-3.7827,-3.781,-3.784,-3.7841,-3.7876,-3.7891,-3.7897,-3.7903,-3.7886,-3.7952,-3.7958,-3.7964,-3.7983,-3.7991,-3.7894,-3.7893,-3.7893,-3.7893,0,-3.7843,-3.7863,-3.7885,-3.7892,-3.7901,-3.7927,-3.7913,-3.7924,-3.7911,-3.7905,-3.7933,-3.7932,-3.7943,-3.7951,-3.7939,-3.7984,-3.7974,-3.7955,-3.7924,-3.7976,-3.7994,-3.8001,-3.7898,-3.7897,-3.7896,-3.7895,0,0,-3.7936,-3.7933,-3.7941,-3.7943,-3.7944,-3.7958,-3.7981,-3.7992,-3.8001,-3.8007,-3.8025,-3.8047,-3.8029,-3.8034,-3.8022,-3.804,-3.8087,-3.8017,-3.8017,-3.8029,-3.8135,-3.8149,-3.8158,-3.8075,-3.8077,-3.8078,-3.8134,0,-3.7997,-3.8037,-3.8022,-3.8063,-3.8079,-3.8052,-3.8072,-3.8075,-3.8069,-3.8082,-3.8075,-3.809,-3.8065,-3.8068,-3.8084,-3.8078,-3.8108,-3.8074,-3.8091,-3.8092,-3.8089,-3.8168,-3.8182,-3.8236,-3.8141,-3.8143,-3.8144,0,-3.8074,-3.8082,-3.8124,-3.812,-3.8126,-3.8145,-3.8152,-3.8165,-3.8167,-3.8161,-3.8167,-3.815,-3.8172,-3.8142,-3.8171,-3.8148,-3.8154,-3.8152,-3.8154,-3.8153,-3.812,-3.8168,-3.8253,-3.826,-3.8155,-3.8154,-3.8153,0,-3.8135,-3.8157,-3.8184,-3.8186,-3.8183,-3.8196,-3.8195,-3.8195,-3.8202,-3.8209,-3.8213,-3.8223,-3.8227,-3.8235,-3.8221,-3.8201,-3.8252,-3.8221,-3.8247,-3.8247,-3.8258,-3.8257,-3.8343,-3.8264,-3.8264,-3.8264,-3.8264,0,-3.8204,-3.8231,-3.8211,-3.8227,-3.8256,-3.8238,-3.8266,-3.8262,-3.8262,-3.8277,-3.8255,-3.8269,-3.8251,-3.8263,-3.8253,-3.8277,-3.828,-3.8276,-3.8272,-3.8277,-3.8277,-3.8279,-3.8275,-3.8266,-3.8266,-3.8265,-3.8265,0,-3.8277,-3.8265,-3.8293,-3.8286,-3.8285,-3.8306,-3.8301,-3.8315,-3.8308,-3.8327,-3.833,-3.8318,-3.8331,-3.8319,-3.8332,-3.8324,-3.8357,-3.8349,-3.8356,-3.8353,-3.8379,-3.8376,-3.8468,-3.8479,-3.8395,-3.8396,-3.8397,0,-3.8321,-3.834,-3.8336,-3.8344,-3.8344,-3.8358,-3.8364,-3.8347,-3.8355,-3.8357,-3.8371,-3.8383,-3.839,-3.8413,-3.8405,-3.8415,-3.8406,-3.8437,-3.8407,-3.841,-3.8404,-3.8402,-3.8403,-3.8443,-3.8444,-3.8445,-3.8446,0,-3.84,-3.8393,-3.8403,-3.841,-3.8418,-3.8424,-3.8428,-3.8435,-3.8418,-3.8427,-3.844,-3.8446,-3.8459,-3.847,-3.8477,-3.8475,-3.8457,-3.8455,-3.8461,-3.8465,-3.8468,-3.8465,-3.8371,-3.8453,-3.8452,-3.8452,-3.8451,-3.8451,-3.8459,-3.8474,-3.8472,-3.8483,-3.8484,-3.8488,-3.85,-3.8494,-3.8504,-3.8513,-3.8502,-3.8518,-3.8517,-3.8524,-3.8525,-3.8536,-3.8523,-3.8532,-3.8534,-3.8537,-3.8539,-3.8468,-3.8538,-3.8538,-3.8537,-3.8537,-3.8537,0,-3.8535,-3.8532,-3.8543,-3.8548,-3.8556,-3.8538,-3.8541,-3.8549,-3.8563,-3.8564,-3.8572,-3.8586,-3.8596,-3.8589,-3.8598,-3.8608,-3.86,-3.8611,-3.8609,-3.8609,-3.8552,-3.8545,-3.8617,-3.8617,-3.8617,-3.8617,-3.8617,-3.8617,-3.8575,-3.8599,-3.8591,-3.8614,-3.8612,-3.8626,-3.8629,-3.8631,-3.8632,-3.8648,-3.8656,-3.8651,-3.8649,-3.8657,-3.8665,-3.8663,-3.8666,-3.868,-3.8674,-3.8621,-3.8613,-3.8605,-3.8599,-3.8681,-3.8681,-3.8729,-3.873,-3.873]}]]